1489060800.84,14161,9.56,73076.5,3.27,-23.19,-24.87,0,*78
1489060802.06,14162,9.56,73076.5,3.29,-23.69,-25.65,0,*7F
1489060803.32,14163,9.56,73076.0,3.27,-24.25,-24.77,0,*7D
1489060804.58,14164,9.56,73078.0,3.29,-25.55,-27.23,0,*70
1489060805.82,14165,9.56,73078.0,3.27,-28.63,-29.23,0,*79
1489060807.04,14166,9.56,73078.0,3.25,-29.29,-29.83,0,*7D
1489060808.3,14167,9.56,73078.3,3.19,-26.33,-26.49,0,*7E
1489060809.54,14168,9.56,73082.5,3.19,-25.29,-26.07,0,*73
1489060810.79,14169,9.56,73076.3,3.17,-25.03,-26.13,0,*71
1489060812.03,14170,9.56,73078.0,3.17,-26.33,-27.55,0,*7A
1489060813.27,14171,9.56,73078.3,3.15,-26.39,-26.93,0,*78
1489060814.5,14172,9.56,73078.3,3.13,-24.57,-25.29,0,*75
1489060815.72,14173,9.56,73082.8,3.13,-23.75,-24.15,0,*7D
1489060816.98,14174,9.56,73076.5,3.13,-23.33,-24.25,0,*7B
1489060818.21,14175,9.56,73076.8,3.13,-23.75,-24.87,0,*70
1489060819.47,14176,9.56,73080.0,3.13,-24.71,-25.55,0,*7E
1489060820.75,14177,9.5,73076.8,3.11,-24.67,-25.75,0,*78
1489060822.02,14178,9.56,73078.3,3.11,-23.33,-24.67,0,*73
1489060823.24,14179,9.56,73078.8,3.09,-23.69,-25.09,0,*7D
1489060824.46,14180,9.56,73080.8,3.05,-23.39,-24.67,0,*7B
1489060825.66,14181,9.56,73078.0,3.05,-22.27,-23.59,0,*7E
1489060826.89,14182,9.56,73078.8,3.01,-23.39,-25.75,0,*7F
1489060828.12,14183,9.56,73082.8,3.01,-23.53,-24.97,0,*7F
1489060829.37,14184,9.56,73082.5,2.97,-23.65,-24.31,0,*7F
1489060830.57,14185,9.56,73082.8,2.95,-22.41,-22.93,0,*75
1489060831.8,14186,9.56,73082.8,2.95,-20.69,-21.27,0,*72
1489060833.01,14187,9.56,73082.5,2.95,-20.09,-20.99,0,*71
1489060834.23,14188,9.56,73080.3,2.95,-20.05,-22.73,0,*74
1489060835.47,14189,9.56,73080.3,2.93,-20.09,-23.53,0,*7C
1489060836.69,14190,9.56,73082.5,2.93,-21.93,-25.13,0,*74
1489060837.97,14191,9.56,73080.0,2.89,-20.99,-24.41,0,*73
1489060839.17,14192,9.56,73082.0,2.91,-20.29,-23.75,0,*72
1489060840.39,14193,9.56,73080.0,2.89,-18.65,-21.43,0,*7E
1489060841.65,14194,9.56,73080.8,2.89,-18.83,-22.17,0,*73
1489060842.91,14195,9.56,73080.0,2.89,-17.73,-20.19,0,*7E
1489060844.14,14196,9.56,73080.3,2.91,-18.79,-21.97,0,*76
1489060845.36,14197,9.56,73080.8,2.91,-19.81,-22.03,0,*7F
1489060846.58,14198,9.56,73080.0,2.91,-19.41,-21.09,0,*75
1489060847.82,14199,9.56,73080.0,2.93,-19.03,-19.81,0,*7B
1489060849.02,14200,9.56,73082.5,2.95,-18.07,-18.41,0,*76
1489060850.26,14201,9.56,73084.3,2.95,-18.59,-18.59,0,*75
1489060851.5,14202,9.56,73078.8,3.01,-20.19,-19.41,0,*7D
1489060852.71,14203,9.56,73078.5,3.05,-19.91,-18.69,0,*79
1489060853.91,14204,9.56,73080.5,3.01,-18.99,-16.59,0,*7E
1489060855.17,14205,9.56,73080.5,3.07,-18.07,-15.85,0,*7C
1489060856.44,14206,9.56,73082.3,3.07,-20.19,-16.51,0,*71
1489060857.66,14207,9.56,73078.5,3.09,-17.59,-13.55,0,*7F
1489060858.91,14208,9.56,73078.0,3.11,-17.63,-13.19,0,*78
1489060860.16,14209,9.56,73080.8,3.15,-18.01,-12.89,0,*7E
1489060861.41,14210,9.56,73082.0,3.19,-16.17,-11.41,0,*74
1489060862.64,14211,9.56,73082.8,3.25,-18.59,-12.93,0,*72
1489060863.85,14212,9.56,73082.3,3.25,-19.65,-13.47,0,*77
1489060865.06,14213,9.56,73080.3,3.27,-20.05,-13.07,0,*7C
1489060866.34,14214,9.56,73080.0,3.27,-21.23,-13.37,0,*7D
1489060867.56,14215,9.56,73076.8,3.27,-22.63,-14.15,0,*7C
1489060868.78,14216,9.56,73076.0,3.25,-21.73,-12.83,0,*76
1489060869.98,14217,9.56,73078.0,3.25,-18.17,-10.27,0,*73
1489060871.18,14218,9.56,73082.8,3.25,-16.03,-8.89,0,*4A
1489060872.42,14219,9.56,73082.5,3.25,-14.05,-7.69,0,*4E
1489060873.62,14220,9.56,73082.0,3.29,-13.43,-7.53,0,*44
1489060874.86,14221,9.56,73080.0,3.33,-14.79,-8.59,0,*45
1489060876.07,14222,9.56,73078.5,3.33,-15.11,-8.67,0,*44
1489060877.29,14223,9.56,73076.8,3.35,-14.89,-8.51,0,*46
1489060878.49,14224,9.56,73082.0,3.35,-14.23,-8.59,0,*49
1489060879.72,14225,9.56,73076.0,3.35,-14.79,-8.93,0,*41
1489060880.96,14226,9.56,73078.3,3.37,-13.79,-8.21,0,*4E
1489060882.21,14227,9.56,73082.0,3.37,-13.19,-8.11,0,*4A
1489060883.46,14228,9.56,73078.0,3.37,-13.07,-7.99,0,*45
1489060884.73,14229,9.56,73078.3,3.37,-13.33,-8.11,0,*4C
1489060885.95,14230,9.56,73076.8,3.39,-13.83,-8.55,0,*41
1489060887.17,14231,9.56,73078.5,3.39,-13.33,-8.29,0,*40
1489060888.44,14232,9.56,73076.8,3.41,-12.61,-7.77,0,*4E
1489060889.67,14233,9.56,73076.0,3.43,-13.29,-8.37,0,*4B
1489060890.86,14234,9.56,73076.5,3.43,-13.65,-8.63,0,*45
1489060892.08,14235,9.56,73076.0,3.43,-13.07,-8.11,0,*45
1489060893.35,14236,9.56,73074.8,3.41,-12.75,-7.95,0,*43
1489060894.55,14237,9.56,73072.5,3.43,-11.11,-6.43,0,*4B
1489060895.78,14238,9.56,73078.0,3.45,-10.97,-6.55,0,*4A
1489060897.0,14239,9.56,73072.0,3.43,-10.49,-6.63,0,*4B
1489060898.2,14240,9.56,73076.5,3.43,-10.31,-6.81,0,*46
1489060899.44,14241,9.56,73076.8,3.45,-9.61,-6.51,0,*71
1489060900.68,14242,9.56,73076.5,3.45,-8.67,-6.27,0,*74
1489060901.95,14243,9.56,73076.3,3.45,-7.73,-5.73,0,*7D
1489060903.19,14244,9.56,73080.0,3.45,-5.73,-4.41,0,*78
1489060904.44,14245,9.56,73074.3,3.51,-5.93,-4.85,0,*7A
1489060905.72,14246,9.56,73078.0,3.49,-5.81,-4.89,0,*7F
1489060906.94,14247,9.56,73076.5,3.49,-5.47,-4.53,0,*73
1489060908.13,14248,9.56,73076.0,3.51,-4.13,-3.31,0,*76
1489060909.34,14249,9.56,73078.3,3.55,-4.09,-3.43,0,*7D
1489060910.56,14250,9.56,73080.0,3.55,-4.33,-3.67,0,*7A
1489060911.77,14251,9.56,73078.0,3.57,-4.61,-3.95,0,*73
1489060912.99,14252,9.56,73080.8,3.59,-5.07,-4.41,0,*71
1489060914.2,14253,9.56,73078.8,3.59,-4.77,-4.13,0,*71
1489060915.39,14254,9.56,73076.3,3.59,-4.41,-3.87,0,*79
1489060916.62,14255,9.56,73080.0,3.61,-4.41,-4.01,0,*7A
1489060917.81,14256,9.56,73080.0,3.63,-4.65,-4.09,0,*75
1489060919.0,14257,9.56,73080.3,3.63,-4.99,-4.29,0,*75
1489060920.22,14258,9.56,73082.8,3.65,-5.23,-4.61,0,*70
1489060921.44,14259,9.56,73080.8,3.65,-5.39,-4.81,0,*74
1489060922.7,14260,9.56,73080.3,3.67,-5.03,-4.21,0,*7F
1489060923.91,14261,9.56,73078.8,3.67,-4.99,-4.05,0,*7A
1489060925.14,14262,9.56,73080.3,3.67,-4.37,-3.55,0,*7F
1489060926.34,14263,9.56,73084.0,3.73,-4.65,-3.63,0,*79
1489060927.58,14264,9.56,73080.5,3.75,-5.27,-4.37,0,*79
1489060928.86,14265,9.56,73082.8,3.75,-5.85,-5.03,0,*76
1489060930.08,14266,9.56,73080.5,3.73,-6.31,-5.27,0,*79
1489060931.28,14267,9.56,73080.5,3.73,-5.55,-4.53,0,*7B
1489060932.51,14268,9.56,73080.8,3.73,-4.77,-3.71,0,*72
1489060933.72,14269,9.56,73078.5,3.73,-4.89,-3.95,0,*78
1489060934.98,14270,9.56,73078.3,3.75,-5.77,-4.77,0,*7D
1489060936.26,14271,9.56,73084.3,3.75,-5.93,-5.07,0,*70
1489060937.49,14272,9.56,73082.0,3.75,-7.35,-6.55,0,*79
1489060938.71,14273,9.56,73080.5,3.73,-6.77,-5.93,0,*70
1489060939.96,14274,9.56,73082.3,3.71,-6.47,-5.61,0,*7B
1489060941.19,14275,9.56,73084.5,3.71,-5.43,-4.77,0,*7B
1489060942.41,14276,9.56,73084.0,3.71,-6.13,-5.47,0,*7C
1489060943.68,14277,9.56,73084.3,3.71,-5.31,-4.69,0,*73
1489060944.9,14278,9.56,73082.0,3.71,-6.09,-5.55,0,*7A
1489060946.18,14279,9.56,73080.8,3.71,-5.31,-4.89,0,*73
1489060947.42,14280,9.56,73080.3,3.67,-5.89,-5.47,0,*72
1489060948.62,14281,9.56,73082.0,3.65,-6.81,-6.39,0,*70
1489060949.81,14282,9.56,73082.3,3.65,-6.01,-5.51,0,*76
1489060951.06,14283,9.56,73082.0,3.65,-5.73,-5.27,0,*70
1489060952.3,14284,9.56,73082.3,3.63,-6.23,-5.81,0,*7B
1489060953.52,14285,9.56,73080.8,3.63,-5.55,-5.15,0,*75
1489060954.74,14286,9.56,73082.8,3.63,-5.39,-4.89,0,*78
1489060956.01,14287,9.56,73080.8,3.61,-5.77,-5.27,0,*74
1489060957.28,14288,9.56,73078.5,3.61,-5.65,-5.31,0,*7F
1489060958.53,14289,9.56,73082.3,3.61,-5.51,-5.15,0,*7F
1489060959.79,14290,9.56,73076.5,3.61,-5.27,-4.73,0,*77
1489060961.0,14291,9.56,73078.3,3.61,-4.99,-4.61,0,*71
1489060962.21,14292,9.56,73078.3,3.61,-4.49,-4.25,0,*7F
1489060963.43,14293,9.56,73080.0,3.61,-4.53,-4.37,0,*76
1489060964.61,14294,9.56,73080.3,3.63,-4.37,-4.13,0,*77
1489060965.81,14295,9.56,73080.8,3.63,-3.95,-3.75,0,*7E
1489060967.01,14296,9.56,73080.8,3.63,-3.75,-3.75,0,*73
1489060968.21,14297,9.56,73080.5,3.65,-3.83,-3.79,0,*71
1489060969.41,14298,9.56,73080.5,3.65,-4.49,-4.37,0,*72
1489060970.63,14299,9.56,73082.8,3.67,-4.25,-4.25,0,*78
1489060971.83,14300,9.56,73080.5,3.65,-3.95,-3.83,0,*7C
1489060973.05,14301,9.56,73080.5,3.67,-4.37,-4.37,0,*78
1489060974.27,14302,9.56,73080.0,3.67,-3.91,-3.83,0,*78
1489060975.53,14303,9.56,73082.5,3.67,-3.55,-3.55,0,*7A
1489060976.74,14304,9.56,73082.0,3.71,-3.39,-3.39,0,*7A
1489060977.97,14305,9.56,73080.3,3.71,-3.79,-3.87,0,*7A
1489060979.18,14306,9.56,73086.5,3.71,-4.21,-4.17,0,*7D
1489060980.38,14307,9.56,73084.0,3.73,-3.95,-3.87,0,*78
1489060981.59,14308,9.56,73084.5,3.73,-3.75,-3.63,0,*73
1489060982.81,14309,9.56,73078.5,3.73,-3.75,-3.71,0,*71
1489060984.07,14310,9.56,73082.5,3.75,-3.71,-3.71,0,*7B
1489060985.28,14311,9.56,73082.3,3.77,-5.03,-4.99,0,*7A
1489060986.49,14312,9.56,73084.0,3.75,-4.53,-4.49,0,*72
1489060987.7,14313,9.56,73080.3,3.75,-4.25,-4.09,0,*76
1489060988.97,14314,9.56,73082.0,3.75,-5.15,-5.15,0,*7F
1489060990.22,14315,9.56,73080.5,3.73,-5.31,-5.31,0,*78
1489060991.48,14316,9.56,73082.5,3.71,-5.73,-5.73,0,*79
1489060992.74,14317,9.56,73080.8,3.71,-5.85,-5.73,0,*71
1489060994.01,14318,9.56,73080.3,3.71,-5.11,-5.11,0,*77
1489060995.23,14319,9.56,73078.5,3.67,-5.51,-5.47,0,*76
1489060996.45,14320,9.56,73082.8,3.67,-6.01,-6.01,0,*7B
1489060997.66,14321,9.56,73078.0,3.67,-6.13,-6.05,0,*7D
1489060998.86,14322,9.56,73082.3,3.65,-6.31,-6.39,0,*73
1489061000.07,14323,9.56,73082.8,3.63,-5.93,-5.97,0,*78
1489061001.34,14324,9.56,73080.3,3.61,-5.89,-5.81,0,*71
1489061002.58,14325,9.56,73078.8,3.61,-5.07,-4.99,0,*7E
1489061003.79,14326,9.56,73082.5,3.61,-4.53,-4.41,0,*78
1489061005.02,14327,9.56,73082.3,3.63,-4.77,-4.73,0,*7C
1489061006.26,14328,9.56,73082.3,3.63,-5.19,-5.15,0,*7B
1489061007.53,14329,9.56,73078.8,3.61,-4.89,-4.89,0,*74
1489061008.78,14330,9.56,73080.0,3.61,-4.85,-4.77,0,*71
1489061010.01,14331,9.56,73082.5,3.61,-4.21,-4.21,0,*7D
1489061011.22,14332,9.56,73082.0,3.61,-4.49,-4.61,0,*74
1489061012.42,14333,9.56,73082.0,3.63,-3.83,-3.83,0,*7D
1489061013.65,14334,9.56,73082.5,3.63,-3.59,-3.51,0,*72
1489061014.89,14335,9.56,73082.0,3.65,-3.47,-3.67,0,*7F
1489061016.09,14336,9.56,73082.5,3.65,-4.05,-4.21,0,*78
1489061017.31,14337,9.56,73082.8,3.67,-3.95,-4.17,0,*70
1489061018.59,14338,9.56,73082.0,3.67,-5.03,-5.23,0,*70
1489061019.86,14339,9.56,73080.8,3.67,-4.93,-5.03,0,*7B
1489061021.05,14340,9.56,73080.8,3.65,-4.09,-4.17,0,*70
1489061022.24,14341,9.56,73082.5,3.65,-4.17,-4.17,0,*7E
1489061023.46,14342,9.56,73080.0,3.67,-4.21,-4.33,0,*7C
1489061024.71,14343,9.56,73076.8,3.71,-3.87,-4.01,0,*70
1489061025.93,14344,9.56,73082.8,3.71,-4.57,-4.65,0,*7F
1489061027.16,14345,9.56,73080.0,3.71,-4.99,-5.11,0,*7E
1489061028.38,14346,9.56,73080.5,3.71,-5.35,-5.47,0,*79
1489061029.61,14347,9.56,73082.8,3.65,-4.69,-4.73,0,*73
1489061030.86,14348,9.56,73082.8,3.67,-5.23,-5.39,0,*7E
1489061032.08,14349,9.56,73082.8,3.71,-4.53,-4.65,0,*76
1489061033.32,14350,9.56,73082.0,3.67,-4.99,-5.15,0,*79
1489061034.58,14351,9.56,73086.5,3.67,-4.93,-5.03,0,*75
1489061035.85,14352,9.56,73080.8,3.67,-4.73,-4.93,0,*70
1489061037.12,14353,9.56,73080.0,3.67,-4.73,-5.03,0,*79
1489061038.38,14354,9.56,73080.8,3.71,-4.81,-5.11,0,*77
1489061039.62,14355,9.56,73080.5,3.67,-4.45,-4.81,0,*71
1489061040.84,14356,9.56,73082.3,3.67,-3.95,-4.33,0,*71
1489061042.09,14357,9.56,73080.5,3.71,-4.33,-4.81,0,*75
1489061043.32,14358,9.56,73078.0,3.71,-4.45,-4.93,0,*78
1489061044.56,14359,9.56,73080.3,3.71,-4.17,-4.77,0,*74
1489061045.77,14360,9.56,73078.8,3.73,-3.71,-4.29,0,*70
1489061047.0,14361,9.56,73080.8,3.73,-3.51,-4.37,0,*7C
1489061048.22,14362,9.56,73082.0,3.73,-3.63,-4.49,0,*77
1489061049.41,14363,9.56,73082.8,3.77,-3.31,-4.33,0,*78
1489061050.59,14364,9.56,73080.3,3.81,-3.31,-4.45,0,*77
1489061051.78,14365,9.56,73082.8,3.81,-3.23,-4.33,0,*74
1489061053.02,14366,9.56,73082.3,3.85,-3.51,-4.81,0,*7F
1489061054.27,14367,9.56,73080.5,3.85,-3.63,-5.03,0,*74
1489061055.51,14368,9.56,73082.0,3.89,-3.67,-5.15,0,*74
1489061056.72,14369,9.56,73082.5,3.95,-4.37,-6.09,0,*74
1489061057.93,14370,9.56,73078.5,3.95,-5.39,-7.23,0,*7A
1489061059.18,14371,9.56,73080.8,3.99,-5.65,-7.39,0,*75
1489061060.43,14372,9.56,73082.0,3.97,-6.39,-8.07,0,*70
1489061061.62,14373,9.56,73082.3,3.99,-7.11,-8.45,0,*72
1489061062.84,14374,9.56,73082.0,4.01,-7.49,-8.71,0,*79
1489061064.05,14375,9.56,73080.8,3.99,-7.87,-8.81,0,*73
1489061065.27,14376,9.56,73084.0,3.99,-7.65,-8.29,0,*7E
1489061066.5,14377,9.56,73082.3,4.01,-8.33,-8.81,0,*77
1489061067.71,14378,9.56,73082.5,4.03,-7.53,-7.65,0,*76
1489061068.9,14379,9.56,73082.0,4.03,-7.87,-8.17,0,*74
1489061070.14,14380,9.56,73080.8,4.03,-9.11,-9.45,0,*75
1489061071.33,14381,9.56,73080.5,4.03,-9.23,-8.97,0,*7B
1489061072.57,14382,9.56,73080.8,4.03,-10.71,-10.19,0,*78
1489061073.79,14383,9.56,73082.8,4.01,-10.23,-9.27,0,*49
1489061075.01,14384,9.56,73084.3,4.01,-10.31,-9.27,0,*4D
1489061076.24,14385,9.56,73082.5,4.01,-11.41,-9.97,0,*41
1489061077.47,14386,9.56,73078.8,3.99,-12.57,-11.01,0,*76
1489061078.71,14387,9.56,73082.5,3.97,-12.21,-9.71,0,*46
1489061079.95,14388,9.56,73080.5,3.93,-12.11,-9.49,0,*45
1489061081.17,14389,9.56,73082.8,3.93,-12.25,-9.45,0,*4F
1489061082.38,14390,9.56,73084.5,3.93,-12.57,-9.23,0,*42
1489061083.6,14391,9.56,73082.3,3.87,-13.11,-10.05,0,*79
1489061084.82,14392,9.56,73084.3,3.85,-13.33,-9.79,0,*4B
1489061086.04,14393,9.56,73082.5,3.83,-13.07,-9.01,0,*44
1489061087.26,14394,9.56,73082.3,3.81,-11.77,-7.83,0,*40
1489061088.46,14395,9.56,73084.0,3.81,-10.15,-6.81,0,*47
1489061089.68,14396,9.56,73082.5,3.79,-10.19,-7.53,0,*41
1489061090.89,14397,9.56,73080.5,3.77,-10.75,-8.33,0,*4D
1489061092.13,14398,9.56,73080.3,3.75,-10.27,-7.95,0,*44
1489061093.35,14399,9.56,73078.3,3.73,-9.79,-7.69,0,*73
1489061094.59,14400,9.56,73080.8,3.71,-8.93,-7.31,0,*7E
1489061095.79,14401,9.56,73078.0,3.65,-8.17,-6.73,0,*71
1489061097.01,14402,9.63,73082.5,3.65,-7.73,-6.69,0,*74
1489061098.23,14403,9.56,73082.3,3.63,-7.35,-6.43,0,*79
1489061099.44,14404,9.56,73078.3,3.61,-6.73,-6.09,0,*71
1489061100.68,14405,9.56,73082.8,3.61,-6.19,-5.51,0,*72
1489061101.87,14406,9.56,73076.5,3.59,-5.97,-5.35,0,*7D
1489061103.09,14407,9.56,73082.3,3.59,-5.47,-5.03,0,*74
1489061104.31,14408,9.56,73078.3,3.59,-6.13,-5.73,0,*7E
1489061105.53,14409,9.56,73082.0,3.59,-5.35,-4.89,0,*7C
1489061106.78,14410,9.56,73080.8,3.57,-5.39,-5.07,0,*71
1489061108.02,14411,9.63,73082.3,3.59,-5.19,-4.81,0,*73
1489061109.21,14412,9.63,73080.5,3.59,-4.57,-4.41,0,*77
1489061110.45,14413,9.56,73080.3,3.59,-4.93,-4.69,0,*74
1489061111.66,14414,9.63,73082.5,3.59,-4.93,-4.65,0,*7F
1489061112.86,14415,9.63,73086.8,3.59,-4.69,-4.33,0,*78
1489061114.05,14416,9.63,73082.5,3.59,-4.53,-4.41,0,*77
1489061115.3,14417,9.63,73080.0,3.59,-5.23,-5.03,0,*77
1489061116.52,14418,9.56,73076.3,3.59,-5.47,-5.31,0,*7B
1489061117.76,14419,9.63,73082.0,3.59,-4.93,-4.69,0,*7E
1489061118.99,14420,9.63,73082.8,3.59,-5.11,-4.93,0,*7A
1489061120.24,14421,9.56,73076.0,3.57,-5.39,-5.23,0,*75
1489061121.5,14422,9.56,73082.0,3.57,-4.93,-4.73,0,*73
1489061122.73,14423,9.56,73080.5,3.57,-4.21,-4.05,0,*7A
1489061123.96,14424,9.56,73076.3,3.57,-4.21,-4.21,0,*7B
1489061125.18,14425,9.56,73080.0,3.57,-4.61,-4.57,0,*7F
1489061126.41,14426,9.63,73082.5,3.57,-4.33,-4.21,0,*7A
1489061127.63,14427,9.56,73080.3,3.57,-4.17,-4.09,0,*77
1489061128.84,14428,9.56,73078.3,3.57,-4.45,-4.45,0,*77
1489061130.03,14429,9.56,73080.3,3.59,-4.33,-4.45,0,*79
1489061131.25,14430,9.56,73078.5,3.57,-4.61,-4.61,0,*7E
1489061132.51,14431,9.56,73080.5,3.57,-4.69,-4.69,0,*7F
1489061133.73,14432,9.56,73082.0,3.57,-4.45,-4.37,0,*79
1489061134.95,14433,9.56,73076.3,3.57,-4.33,-4.29,0,*76
1489061136.17,14434,9.63,73080.5,3.57,-4.05,-3.95,0,*74
1489061137.39,14435,9.56,73080.5,3.57,-3.95,-3.95,0,*7B
1489061138.61,14436,9.63,73082.0,3.57,-4.05,-4.05,0,*78
1489061139.89,14437,9.56,73080.8,3.57,-5.23,-5.15,0,*7C
1489061141.11,14438,9.56,73080.3,3.57,-5.35,-5.39,0,*7A
1489061142.3,14439,9.63,73080.8,3.55,-5.47,-5.43,0,*71
1489061143.57,14440,9.56,73078.3,3.53,-5.81,-5.77,0,*74
1489061144.82,14441,9.56,73078.8,3.53,-5.39,-5.31,0,*74
1489061146.02,14442,9.56,73078.8,3.51,-4.65,-4.65,0,*7D
1489061147.24,14443,9.63,73080.8,3.53,-4.53,-4.53,0,*7E
1489061148.43,14444,9.56,73078.0,3.51,-4.41,-4.41,0,*7B
1489061149.65,14445,9.63,73082.3,3.51,-3.71,-3.75,0,*7E
1489061150.84,14446,9.56,73078.3,3.51,-3.87,-3.95,0,*7A
1489061152.04,14447,9.56,73076.3,3.51,-3.75,-3.83,0,*71
1489061153.3,14448,9.63,73082.5,3.53,-4.01,-4.21,0,*77
1489061154.53,14449,9.56,73076.8,3.53,-3.75,-3.75,0,*74
1489061155.72,14450,9.56,73076.3,3.55,-4.49,-4.61,0,*70
1489061156.94,14451,9.63,73078.0,3.55,-4.99,-5.07,0,*7D
1489061158.2,14452,9.56,73076.5,3.53,-4.73,-4.77,0,*7A
1489061159.43,14453,9.56,73074.8,3.53,-4.21,-4.33,0,*7C
1489061160.65,14454,9.63,73076.0,3.53,-4.41,-4.37,0,*79
1489061161.85,14455,9.56,73076.3,3.55,-3.95,-3.95,0,*7F
1489061163.07,14456,9.56,73074.0,3.53,-4.13,-4.21,0,*7B
1489061164.26,14457,9.63,73078.3,3.55,-4.29,-4.17,0,*70
1489061165.46,14458,9.56,73074.8,3.55,-3.79,-3.83,0,*77
1489061166.66,14459,9.56,73072.3,3.55,-3.95,-4.09,0,*71
1489061167.85,14460,9.63,73074.0,3.55,-4.17,-4.29,0,*74
1489061169.07,14461,9.63,73076.8,3.53,-4.41,-4.41,0,*7E
1489061170.27,14462,9.56,73076.0,3.55,-4.49,-4.57,0,*74
1489061171.45,14463,9.56,73074.5,3.55,-4.45,-4.57,0,*79
1489061172.69,14464,9.56,73072.5,3.55,-4.85,-4.85,0,*7D
1489061173.9,14465,9.56,73074.5,3.55,-3.83,-3.91,0,*7F
1489061175.11,14466,9.56,73076.0,3.55,-3.43,-3.39,0,*72
1489061176.36,14467,9.63,73076.3,3.55,-3.59,-3.59,0,*7E
1489061177.62,14468,9.63,73078.3,3.57,-4.73,-4.81,0,*7E
1489061178.84,14469,9.56,73076.0,3.57,-4.45,-4.49,0,*7E
1489061180.05,14470,9.56,73076.8,3.57,-4.37,-4.57,0,*7C
1489061181.28,14471,9.63,73076.5,3.57,-4.29,-4.37,0,*74
1489061182.5,14472,9.63,73076.0,3.57,-4.17,-4.29,0,*75
1489061183.75,14473,9.56,73076.3,3.57,-4.57,-4.69,0,*74
1489061185.0,14474,9.56,73076.3,3.57,-5.23,-5.39,0,*75
1489061186.21,14475,9.63,73078.5,3.55,-4.99,-5.11,0,*7C
1489061187.43,14476,9.63,73078.0,3.53,-4.49,-4.53,0,*73
1489061188.65,14477,9.56,73072.8,3.57,-4.05,-4.05,0,*7D
1489061189.85,14478,9.56,73072.8,3.55,-4.21,-4.33,0,*73
1489061191.06,14479,9.56,73074.3,3.53,-4.49,-4.49,0,*77
1489061192.26,14480,9.63,73076.3,3.55,-3.95,-3.91,0,*73
1489061193.52,14481,9.63,73076.0,3.57,-3.67,-3.71,0,*73
1489061194.76,14482,9.63,73078.5,3.59,-3.67,-3.67,0,*79
1489061195.95,14483,9.56,73076.8,3.59,-3.03,-3.03,0,*78
1489061197.18,14484,9.63,73076.0,3.59,-3.63,-3.67,0,*7B
1489061198.38,14485,9.56,73078.8,3.59,-3.27,-3.27,0,*7E
1489061199.61,14486,9.63,73078.5,3.61,-3.35,-3.43,0,*77
1489061200.83,14487,9.63,73078.8,3.61,-3.31,-3.31,0,*77
1489061202.04,14488,9.56,73078.8,3.63,-2.75,-2.87,0,*77
1489061203.23,14489,9.63,73076.5,3.63,-2.99,-2.99,0,*7B
1489061204.42,14490,9.56,73076.5,3.63,-3.19,-3.11,0,*7B
1489061205.64,14491,9.56,73074.8,3.67,-3.27,-3.19,0,*7B
1489061206.86,14492,9.56,73072.5,3.67,-3.15,-3.07,0,*76
1489061208.08,14493,9.63,73078.3,3.67,-3.31,-3.31,0,*74
1489061209.27,14494,9.56,73072.3,3.73,-3.07,-2.99,0,*70
1489061210.51,14495,9.63,73076.0,3.73,-2.63,-2.59,0,*7E
1489061211.72,14496,9.63,73076.8,3.75,-3.23,-3.19,0,*7B
1489061212.98,14497,9.63,73080.3,3.75,-2.59,-2.59,0,*73
1489061214.17,14498,9.63,73076.0,3.77,-2.95,-2.91,0,*7A
1489061215.38,14499,9.63,73076.5,3.79,-3.03,-3.07,0,*75
1489061216.64,14500,9.56,73072.3,3.79,-3.43,-3.47,0,*74
1489061217.85,14501,9.63,73078.3,3.81,-3.39,-3.51,0,*78
1489061219.06,14502,9.63,73076.8,3.83,-3.35,-3.39,0,*7B
1489061220.27,14503,9.63,73078.0,3.83,-3.19,-3.19,0,*76
1489061221.45,14504,9.63,73076.0,3.85,-2.87,-2.83,0,*73
1489061222.66,14505,9.63,73078.0,3.87,-2.35,-2.27,0,*77
1489061223.85,14506,9.63,73082.0,3.89,-2.35,-2.27,0,*7A
1489061225.06,14507,9.63,73076.0,3.89,-2.47,-2.43,0,*7C
1489061226.32,14508,9.63,73074.8,3.95,-2.63,-2.59,0,*73
1489061227.58,14509,9.63,73072.8,3.95,-2.59,-2.59,0,*7B
1489061228.81,14510,9.56,73074.0,3.99,-2.55,-2.31,0,*7D
1489061230.05,14511,9.63,73076.5,3.99,-3.59,-3.43,0,*75
1489061231.26,14512,9.63,73074.0,3.99,-3.55,-3.31,0,*7F
1489061232.48,14513,9.63,73078.0,3.99,-3.55,-3.31,0,*7E
1489061233.67,14514,9.63,73072.8,4.03,-3.75,-3.39,0,*77
1489061234.91,14515,9.56,73070.8,4.01,-3.87,-3.55,0,*73
1489061236.11,14516,9.56,73070.8,4.03,-3.79,-3.27,0,*76
1489061237.3,14517,9.63,73074.3,4.03,-4.41,-3.79,0,*70
1489061238.53,14518,9.63,73074.3,4.05,-4.69,-4.05,0,*7F
1489061239.72,14519,9.63,73074.8,4.03,-4.41,-3.83,0,*7B
1489061240.95,14520,9.63,73070.8,4.01,-4.85,-4.33,0,*77
1489061242.19,14521,9.63,73074.8,4.01,-4.85,-4.09,0,*7F
1489061243.4,14522,9.63,73072.8,4.01,-4.65,-4.09,0,*72
1489061244.58,14523,9.63,73070.5,4.03,-4.53,-3.95,0,*76
1489061245.82,14524,9.63,73078.0,4.01,-4.77,-4.37,0,*7A
1489061247.06,14525,9.63,73074.8,4.01,-4.77,-4.25,0,*78
1489061248.28,14526,9.63,73074.5,4.01,-4.61,-4.21,0,*78
1489061249.52,14527,9.63,73074.3,4.01,-4.73,-4.37,0,*7D
1489061250.74,14528,9.63,73072.5,4.01,-4.09,-3.79,0,*72
1489061251.97,14529,9.63,73070.8,3.99,-4.01,-3.79,0,*7D
1489061253.19,14530,9.63,73072.0,3.99,-3.47,-3.19,0,*76
1489061254.4,14531,9.63,73070.0,3.99,-3.83,-3.67,0,*76
1489061255.63,14532,9.56,73070.5,4.01,-3.87,-3.79,0,*78
1489061256.84,14533,9.63,73070.0,4.03,-3.75,-3.63,0,*7D
1489061258.1,14534,9.63,73072.0,4.01,-3.67,-3.55,0,*7E
1489061259.3,14535,9.63,73072.8,3.99,-3.31,-3.07,0,*7D
1489061260.57,14536,9.63,73074.3,4.01,-3.47,-3.59,0,*72
1489061261.75,14537,9.63,73070.8,4.03,-4.09,-4.05,0,*72
1489061262.97,14538,9.63,73074.5,4.01,-4.13,-4.13,0,*73
1489061264.21,14539,9.63,73074.3,4.01,-3.43,-3.31,0,*77
1489061265.41,14540,9.63,73072.5,3.99,-3.19,-3.07,0,*75
1489061266.62,14541,9.63,73070.3,4.01,-3.35,-3.23,0,*7A
1489061267.86,14542,9.63,73072.3,4.03,-3.51,-3.43,0,*7F
1489061269.06,14543,9.63,73072.0,4.03,-3.83,-3.79,0,*78
1489061270.32,14544,9.63,73072.3,4.01,-3.55,-3.43,0,*7F
1489061271.5,14545,9.63,73072.3,4.03,-3.31,-3.23,0,*78
1489061272.77,14546,9.63,73070.5,4.01,-2.67,-2.71,0,*7D
1489061273.96,14547,9.63,73070.3,4.03,-3.15,-3.15,0,*79
1489061275.15,14548,9.63,73074.0,4.03,-3.27,-3.39,0,*79
1489061276.37,14549,9.63,73072.5,4.05,-3.15,-3.27,0,*70
1489061277.59,14550,9.63,73074.0,4.05,-3.11,-3.03,0,*7A
1489061278.86,14551,9.63,73074.0,4.05,-2.71,-2.63,0,*7B
1489061280.05,14552,9.63,73070.5,4.07,-2.83,-2.95,0,*7E
1489061281.25,14553,9.63,73070.3,4.07,-3.35,-3.39,0,*74
1489061282.45,14554,9.63,73074.0,4.07,-3.75,-3.79,0,*73
1489061283.69,14555,9.63,73072.8,4.07,-3.63,-3.63,0,*7E
1489061284.88,14556,9.63,73072.5,4.07,-3.35,-3.39,0,*71
1489061286.1,14557,9.63,73074.0,4.09,-3.35,-3.35,0,*72
1489061287.36,14558,9.63,73072.3,4.09,-3.55,-3.47,0,*7E
1489061288.57,14559,9.63,73070.8,4.09,-2.91,-2.79,0,*7A
1489061289.82,14560,9.63,73074.5,4.09,-2.47,-2.31,0,*77
1489061291.03,14561,9.63,73072.0,4.13,-2.39,-2.31,0,*74
1489061292.25,14562,9.63,73076.3,4.13,-3.15,-3.07,0,*7C
1489061293.49,14563,9.63,73074.0,4.13,-2.79,-2.55,0,*70
1489061294.73,14564,9.63,73074.5,4.17,-2.51,-2.39,0,*73
1489061295.92,14565,9.63,73068.5,4.19,-3.03,-2.87,0,*7F
1489061297.14,14566,9.63,73068.5,4.21,-3.11,-2.99,0,*7B
1489061298.36,14567,9.63,73072.3,4.21,-3.19,-2.99,0,*72
1489061299.57,14568,9.63,73068.8,4.19,-3.55,-3.27,0,*7A
1489061300.8,14569,9.63,73072.8,4.23,-3.55,-3.43,0,*70
1489061301.99,14570,9.63,73070.8,4.23,-3.19,-2.95,0,*7A
1489061303.18,14571,9.63,73072.5,4.23,-3.23,-2.99,0,*7E
1489061304.37,14572,9.63,73074.3,4.23,-2.99,-2.83,0,*76
1489061305.58,14573,9.63,73072.8,4.23,-3.83,-3.63,0,*72
1489061306.8,14574,9.63,73068.0,4.23,-4.21,-4.01,0,*79
1489061308.04,14575,9.63,73072.0,4.23,-3.71,-3.59,0,*70
1489061309.24,14576,9.63,73072.3,4.23,-3.43,-3.19,0,*76
1489061310.46,14577,9.63,73072.3,4.23,-3.55,-3.35,0,*7E
1489061311.68,14578,9.63,73070.8,4.23,-3.55,-3.47,0,*74
1489061312.92,14579,9.63,73068.5,4.23,-3.55,-3.43,0,*71
1489061314.17,14580,9.63,73070.8,4.25,-3.59,-3.55,0,*7A
1489061315.36,14581,9.63,73068.3,4.23,-3.19,-3.11,0,*79
1489061316.57,14582,9.63,73072.3,4.25,-3.15,-3.07,0,*77
1489061317.78,14583,9.63,73068.5,4.25,-2.83,-2.91,0,*76
1489061318.98,14584,9.63,73068.0,4.25,-2.83,-2.79,0,*77
1489061320.19,14585,9.63,73070.0,4.27,-2.83,-2.75,0,*78
1489061321.43,14586,9.63,73070.3,4.29,-2.59,-2.51,0,*74